GFSFLT2_prec_radar_063.txt.gz
Reflectivity
31 46 47 44 44 33 31 12 28 19 -14 -18 -6 -20 -20 -20 -20 -20 -20 -18 -20 -20 -20 -20 -20 -20 -20 -20 -20 -20 -20 -20
28 42 46 43 50 36 45 36 34 15 15 -4 16 -20 -20 -20 -20 -20 -16 3 -10 -17 -20 -20 -20 -20 -20 -20 -20 -20 -20 -20
4 25 25 35 37 39 38 38 8 -7 0 -2 -20 -20 -19 -20 -14 -20 -17 19 15 1 -20 -20 -20 -20 -20 -20 -20 -20 -20 -20
3 2 15 9 17 16 34 36 25 14 8 4 14 9 6 -2 -5 -19 -20 -2 -0 15 -12 -6 -20 -20 -20 -20 -20 -20 -20 -20
-20 -6 6 9 7 12 -3 15 10 21 28 13 29 14 11 7 5 -3 -8 -2 10 -13 -4 -17 -20 -20 -20 -20 -20 -20 -20 -20
-9 -20 -20 -6 -20 -13 -5 -19 -16 -6 -17 -14 4 8 16 27 20 -8 -20 -20 10 -17 -20 -20 -20 -20 -20 -20 -20 -20 -20 -20
10 -19 -5 15 -13 -12 -6 -7 13 -1 -20 -6 15 5 -13 -12 -11 -20 -20 -11 -20 -20 -20 -20 -20 -20 -20 -20 -20 -20 -20 -20
23 26 6 -7 17 -3 24 -6 -7 -19 -15 11 5 1 -7 -20 -20 -20 -10 -20 -20 -20 -20 -20 -20 -20 -20 -20 -20 -20 -20 -20
32 21 16 -13 -14 -1 17 -20 0 8 8 13 15 -5 -20 -10 -20 -19 -20 -20 -20 -20 -20 -20 -20 -20 -20 -20 -20 -20 -20 -20
8 10 9 -2 6 7 -12 13 13 -3 8 -4 -20 -20 -20 -20 -8 -20 -20 -20 -20 -20 -20 -20 -20 -20 -20 -20 -20 -20 -20 -20
19 18 18 12 -20 -11 -7 -5 -2 13 -7 -18 -20 -20 -20 7 -20 -20 -20 -20 -20 -20 -20 -20 -20 -20 -20 -20 -20 -20 -20 -20
-20 -17 -14 -20 -20 -20 -20 -20 -20 -20 -20 -20 -20 -20 -20 -20 -20 -20 -20 -20 -20 -20 -20 -20 -20 -20 -20 -20 -20 -20 -20 -20
-20 -20 -20 -20 -20 -20 -20 -20 -20 -20 -20 -20 -20 -20 -1 -2 -18 -20 -20 -20 -20 -20 -20 -20 -20 -20 -20 -20 -20 -20 -20 -20
-20 -20 -20 -20 -20 -20 -20 -20 -20 -20 -20 -20 -20 -20 -20 -15 18 17 15 -20 -20 -14 -20 -20 -20 -20 -20 13 0 -15 -20 -20
-20 -20 -20 -20 -20 -20 -20 -20 -20 -20 -20 -20 -20 -20 -20 -20 -20 4 27 -13 -1 -20 9 -20 -9 10 -1 -18 18 14 -20 -19
-20 -20 -20 -20 -20 -20 -20 -20 -20 -20 -20 -20 -20 -20 -20 -20 -20 -13 28 -20 -20 -2 -13 -15 -12 -4 32 21 11 12 25 16
-20 -20 -20 -20 -20 -20 -20 -20 -20 -20 -20 -20 -20 -20 -20 -20 -20 -20 -20 -17 -20 -20 14 -15 -1 24 33 17 20 33 35 25
-20 -20 -20 -20 -20 -20 -20 -20 -20 -20 -20 -20 -20 -20 -20 -3 -20 -11 -20 25 -20 -20 17 20 5 6 7 26 23 33 27 26
-20 -20 -20 -20 -20 -20 -20 -20 -20 -20 -20 -20 -20 -20 -20 30 28 27 -8 1 -20 -20 17 -1 -4 14 27 26 29 28 17 26
-20 -20 -20 -20 -20 -20 -20 -20 -20 -20 -20 -20 -20 -20 -20 -20 -20 29 26 13 -20 -16 -11 7 9 20 20 11 18 18 20 18

GFSFLT2_prec_radar_066.txt.gz
Reflectivity
32 37 39 44 46 42 34 -5 12 -1 -1 -18 -20 -20 -20 -20 -20 -20 -20 -20 -20 -20 -20 -20 -20 -7 -4 -20 -20 -20 -20 -20
30 36 33 46 42 43 37 40 20 -14 11 -17 -20 -20 -20 -20 -20 -20 -20 -20 -15 14 8 -20 -20 1 0 -20 -20 -20 -20 -20
15 30 17 35 42 40 40 41 33 14 7 -3 -20 -8 -20 -20 -20 -20 -13 -18 -20 5 6 -7 -15 -10 -9 -20 -20 -20 -20 -20
-17 7 3 28 31 31 31 42 32 19 14 29 11 -15 -20 -20 -19 -20 10 3 -9 -20 -19 5 -17 -20 -17 -20 -20 -20 -20 -20
-13 -20 -2 16 19 16 15 23 30 31 21 30 15 -2 -17 1 6 12 -5 11 -4 -18 -20 -20 -20 -20 -20 -20 -20 -20 -20 -20
2 -5 -18 -3 9 5 15 1 12 12 27 26 28 11 -11 2 -18 9 9 5 -20 -20 -20 -20 -20 -20 -20 -20 -20 -20 -20 -20
-18 -6 -13 -20 5 -0 4 -2 -1 -6 -13 23 4 4 14 -20 -8 -20 -13 -20 -20 -20 -20 -20 -20 -20 -20 -20 -20 -20 -20 -20
15 10 24 -20 7 -5 -7 -8 -13 -0 4 -20 -13 0 15 -20 -17 -20 -20 -20 -20 -20 -20 -20 -20 -20 -20 -20 -20 -20 -20 -20
23 22 17 27 23 15 25 4 13 6 1 -11 8 0 -12 -18 -20 -20 -20 -20 -20 -20 -20 -20 -20 -20 -20 -20 -20 -20 -20 -20
25 30 27 22 11 8 2 24 21 0 -2 -20 -20 -5 -16 -20 -20 -20 -20 -20 -20 -20 -20 -20 -20 -20 -20 -20 -20 -20 -20 -20
-0 20 -10 14 7 6 21 20 -5 12 -16 -3 -9 16 -10 -20 -20 -20 -20 -20 -20 -20 -20 -20 -20 -20 -20 -20 -20 -20 -20 -20
5 21 1 1 3 -0 9 -5 10 13 -14 5 -16 -20 -20 -20 -20 -20 -20 -20 -20 -20 -20 -20 -20 -20 -20 -20 -20 -20 -20 -20
-3 18 7 -18 -20 4 11 11 14 3 7 -20 -20 -20 -20 -20 -20 -20 -20 -20 -20 -20 -20 -20 -20 -20 -20 -20 -20 -20 -20 -20
-20 -20 -20 -20 -20 -20 -16 -20 -20 -20 -20 -20 -20 -20 -20 -20 -13 -20 -20 -20 -20 -20 -20 -20 -20 -20 -20 -20 -20 -11 -20 -20
-20 -20 -20 -20 -20 -20 -20 -20 -20 -20 -20 -20 -20 -20 -20 -20 -20 -20 -13 -20 -20 -20 -1 -20 -20 -20 -9 -3 9 -13 5 -20
-20 -20 -20 -20 -20 -20 -20 -20 -20 -20 -20 -20 -20 -20 -20 -20 -20 -20 -20 -20 -20 -20 -20 -20 -20 -15 -20 -13 29 21 11 1
-20 -19 -20 -20 -20 -20 -20 -20 -20 -20 -20 -20 -20 -20 -20 -20 -20 -20 -20 -20 -20 -20 -20 20 20 -18 -5 26 -10 3 6 12
-20 -20 -20 -20 -20 -20 -20 -20 -20 -20 -20 -20 -20 -20 -20 -20 -20 -20 -20 -20 -20 -20 -20 2 -20 -20 23 -12 31 7 24 8
-20 -20 -20 -20 -20 -20 -20 -20 -20 -20 -20 -20 -20 -20 -20 -1 -20 -20 -20 -0 -17 12 -20 -20 -20 -20 19 -17 21 30 -18 -10
-20 -20 -20 -20 -20 -20 -20 -20 -20 -20 -20 -20 9 -20 -20 -20 -20 -20 13 29 30 2 -20 -20 -20 -20 3 15 17 -15 -20 -20

GFSFLT2_prec_radar_072.txt.gz
Reflectivity
-20 -20 -20 30 23 26 12 11 28 2 -1 9 -17 3 -6 -14 -20 -20 -20 -20 -20 -20 -20 -20 -20 -20 -20 -20 -20 -20 -20 -20
-20 -6 -19 10 19 8 16 -8 28 20 25 30 4 -4 -11 -20 -20 -20 -20 1 -20 -20 -20 -20 -20 -20 -6 -17 -20 -20 -20 -20
-19 -8 3 2 -7 -20 -17 10 38 37 31 19 7 7 -16 -18 -20 -20 -20 -20 -17 -20 -20 -20 -20 -20 -19 -16 -14 -20 -20 -20
-0 -3 -14 -13 -20 -20 7 25 34 36 35 36 10 10 26 -7 -20 -20 -20 -0 2 -20 -20 -15 -14 -20 -20 -20 3 -12 -20 -20
17 3 -18 -6 -20 -20 26 35 40 38 40 33 17 11 -13 -20 -20 -20 -20 9 6 -9 -20 -20 -20 -20 -20 -20 -20 -20 -20 -20
-1 -20 -20 13 -3 -20 9 34 37 36 32 18 -0 7 8 -6 -18 -20 -20 -8 -10 -15 0 17 -1 -20 -20 -20 -20 -20 -20 -20
13 -20 2 -20 -20 -20 0 20 17 24 20 11 18 18 24 14 7 -20 -6 -10 -19 -4 -1 -14 -20 -20 -20 -20 -20 -20 -20 -20
-8 -19 -20 -20 -20 -20 -8 6 25 20 10 -13 7 24 7 18 16 20 -2 -20 -20 -5 -20 -20 -20 -20 -20 -20 -20 -20 -20 -20
-18 17 19 -6 -20 -2 -20 12 24 27 23 12 -2 12 18 13 26 9 2 -20 -20 -3 -20 -20 -20 -20 -20 -20 -20 -20 -20 -20
-2 17 15 25 -20 -20 2 -3 18 23 16 15 28 8 21 27 24 6 4 -20 -18 -12 -20 -20 -20 -20 -20 -20 -20 -20 -20 -20
1 14 30 9 21 15 13 17 12 20 28 25 22 27 20 23 24 23 9 -13 -14 -20 -20 -20 -20 -20 -20 -20 -20 -20 -20 -20
-16 -6 17 31 16 19 31 28 24 34 25 18 9 18 26 21 12 22 16 9 -6 -20 -20 -20 -17 -19 -20 -20 -20 -20 -20 -20
-20 -7 2 23 24 -15 21 26 26 28 31 25 13 19 15 17 9 13 15 5 -20 -20 -20 -20 -20 -17 -20 -20 -20 -20 -20 -20
-20 -9 -20 -11 17 13 4 21 28 25 31 28 16 12 -6 -9 -12 3 18 -13 -20 -20 -18 -20 -20 -8 -20 -20 -20 -20 -20 -20
-20 -20 -20 -17 7 11 18 28 25 23 30 28 21 2 -1 8 10 24 -6 -17 -16 -20 -20 -12 -20 -18 -20 -8 -19 3 -8 -20
-20 -20 -20 -20 -20 -18 5 11 -0 6 -1 -12 1 6 27 -5 -1 1 -20 -20 -20 -20 -20 -19 -20 -19 -20 5 -20 -20 -16 -20
-20 -20 -20 -20 -20 -20 -8 -20 -20 -20 -20 -20 -20 -20 -20 -20 -20 -20 -20 -20 -20 -20 -18 -17 7 -11 17 -10 11 -20 -20 10
-20 -20 -20 -20 -20 -20 -20 -20 -20 -20 -20 -20 -20 -20 -20 -20 -20 -20 -8 4 -18 -14 16 11 4 -20 -20 5 24 -20 -20 -1
-20 -20 -20 -20 -20 -20 -20 -20 -20 -20 -20 -20 -20 -20 -20 -20 -20 -20 -20 -20 -20 -20 -20 -20 -8 9 25 22 6 6 21 12
-20 -20 -20 -20 -20 -20 -20 -20 -20 -20 -20 -20 -20 -20 -20 -20 -20 -20 -20 -20 -20 -20 -20 15 21 24 5 16 19 18 -14 -20

GFSFLT2_prec_radar_075.txt.gz
Reflectivity
27 30 -7 32 18 23 28 22 33 30 37 14 -8 -20 -6 1 -5 -20 -20 -20 -19 -20 -20 -20 -20 -20 -20 -20 -20 -20 -20 -20
32 16 14 -2 -12 18 -11 -14 10 37 25 14 -1 -10 9 11 -20 -20 -20 -20 -20 -20 -20 -20 -20 -20 -20 -20 -20 -20 -20 -20
23 32 32 33 -16 -20 -20 -20 -19 34 43 15 21 -14 10 7 -15 -19 -20 -20 -20 -20 -20 -20 -20 -20 -20 -20 -20 -20 -20 -20
-11 -13 -19 35 -20 -20 -6 -20 -13 32 33 30 -0 3 12 13 11 -20 -20 -20 -20 -20 -20 -20 -20 -20 -20 -20 -20 -20 -20 -20
8 -14 -11 -12 -20 -20 -20 -0 26 38 35 29 20 11 9 16 23 -8 -20 -20 -20 -20 -20 -20 -20 -20 -20 -20 -20 -20 -20 -20
1 -12 -20 -20 -17 -17 -13 -1 40 35 35 33 16 -13 -6 13 25 14 -16 -20 -20 -13 -18 -20 -20 6 -8 -20 -20 -20 -20 -20
-20 -17 -13 -20 -20 -20 6 15 35 34 36 27 -12 -16 8 23 25 12 -14 -20 -20 -20 -20 -20 -19 -20 -20 -20 -20 -20 -20 -20
-10 -15 -6 -10 -20 -20 13 18 37 25 29 21 -10 6 14 13 11 7 -0 3 -20 -20 -20 -20 -20 -20 -20 -20 -20 -20 -20 -20
16 2 -20 -20 -19 0 17 25 29 29 28 26 24 21 15 26 23 9 11 -20 -20 14 -10 -20 -20 -20 -20 -20 -20 -20 -20 -20
7 -6 2 20 7 21 -12 31 29 28 22 10 15 12 16 -3 -11 12 16 20 -7 -11 -20 -20 -20 -20 -20 -20 -20 -20 -20 -20
-12 -11 21 10 22 4 9 26 26 17 21 2 -15 7 -3 -20 -13 9 8 -16 15 -11 -20 -20 -20 -20 -20 -20 -20 -20 -20 -20
2 6 6 25 11 -9 6 29 28 25 17 16 -2 -0 21 3 -17 4 19 21 25 -15 -20 -20 -20 -20 -20 -20 -20 -20 -20 -20
3 -9 -0 10 12 2 18 29 34 24 20 11 4 8 29 6 10 27 20 19 3 -20 -20 -20 -20 -20 -20 -20 -20 -20 -20 -20
4 -19 -7 -13 5 -19 -7 18 31 31 20 13 4 13 21 7 17 18 15 13 0 -6 -9 18 -6 -20 -13 -20 -20 -20 -20 -20
-14 -20 -7 -20 -20 -16 -20 -6 5 14 26 18 8 22 17 15 -2 -11 -19 -20 -20 -16 -20 -20 -20 8 -7 8 -20 -19 -20 21
-20 -20 4 -20 -20 -20 -20 -3 -2 -10 3 -9 26 20 22 24 19 -19 -20 2 0 -10 -1 -20 -20 -20 -20 13 14 -18 -20 -9
-20 -20 -20 -20 -20 -20 -20 4 22 30 32 30 24 24 12 20 18 2 8 17 -4 1 -20 -20 -7 -20 -20 18 2 -16 -20 -20
-20 -20 -20 -20 -20 -20 -20 -20 -9 -10 -16 -10 -14 -12 -11 6 2 -7 10 -8 -13 -15 10 -6 -12 -12 22 11 0 -10 -20 -12
-20 -20 -20 -20 -20 -20 -20 -20 -20 -20 -20 -20 -20 -20 -20 -4 -20 -20 -20 -20 -20 -20 -20 -3 -20 -3 13 -0 1 10 19 5
-20 -20 -20 -20 -20 -20 -20 -20 -20 -20 -20 -20 -20 -20 -20 -20 -20 -20 -20 -20 -20 -20 -20 -20 -20 -20 -20 -20 -20 -5 12 4

GFSFLT2_prec_radar_078.txt.gz
Reflectivity
13 -11 3 29 33 2 32 37 -13 10 14 39 -1 17 -20 19 9 -7 10 -20 -20 -20 -20 -20 -20 -20 -20 -20 -20 -20 -20 -20
-6 7 11 4 -3 -3 -18 4 -7 -2 4 20 32 8 -8 18 25 2 -17 -20 -20 -20 -20 -20 -20 -20 -20 -20 -20 -20 -20 -20
-8 -18 14 18 5 2 12 -7 -20 -20 22 33 39 25 7 2 7 -11 -20 -20 -20 -20 -20 -20 -20 -20 -20 -20 -20 -20 -20 -20
-12 -15 5 -9 16 14 5 -20 -20 -8 20 33 39 29 9 6 17 -10 -20 -20 -20 -20 -20 -20 -20 -20 -20 -20 -20 -20 -20 -20
-1 -20 -13 5 13 26 15 -20 -20 16 22 34 27 37 30 15 12 -10 -20 -20 -20 -20 -20 -20 -20 -20 -20 -20 -20 -20 -20 -20
2 7 8 -4 -0 -2 6 0 1 9 32 44 36 36 23 9 -2 7 -19 -20 -20 -20 -20 -20 -20 -20 -20 -20 -20 -20 -20 -20
17 11 8 12 11 8 -7 3 -4 13 37 28 36 19 24 17 11 4 -5 -11 -20 -20 -20 -20 -20 -20 -20 -20 -20 -20 -20 -20
6 6 1 -11 3 16 4 -2 27 30 35 32 29 30 29 23 12 10 2 -12 -8 -20 -20 -20 -20 -20 -20 -20 -20 -20 -20 -20
-6 13 8 -20 2 -3 -3 10 23 30 34 36 34 25 31 24 9 3 -3 -0 -3 -18 -20 -20 -20 -20 -20 -20 -20 -20 -20 -20
4 13 2 -3 1 16 7 -13 28 19 35 30 33 31 6 12 14 1 17 19 14 -4 6 -20 -20 -20 -20 -20 -20 -20 -20 -20
9 10 -15 -15 21 6 30 17 -1 2 26 25 -4 -4 19 22 20 20 22 23 18 12 -9 -20 -20 -20 -20 -20 -20 -20 -20 -20
15 3 -20 7 10 9 17 10 28 20 25 28 22 23 25 27 27 25 20 -20 -20 19 -7 -20 -20 -20 -20 -20 -20 -20 -20 -20
4 -10 -9 3 5 11 21 21 23 15 17 19 18 18 17 13 -2 6 -13 -20 -4 -5 4 -20 -20 -20 -20 -20 -20 -20 -20 -20
8 1 3 3 10 10 11 16 13 13 25 -2 10 11 1 -6 -0 12 1 -20 -15 -17 -18 -20 -20 -17 -20 -20 -15 -20 -20 -20
-5 1 -3 4 7 13 10 22 18 4 1 5 -12 2 16 7 -7 -17 7 -1 12 -19 -20 -13 -6 9 13 -15 -11 2 -20 17
-20 -0 -0 0 -20 -2 5 2 24 7 -1 -11 16 1 -5 -12 11 21 -19 18 -2 -13 -17 -18 -20 -20 -16 -18 14 6 -12 26
4 2 3 -3 -1 -20 -4 5 3 13 6 -1 3 -8 14 24 -5 -2 -0 -20 -20 -20 -20 -20 -20 -19 -20 -20 -20 -6 30 -11
-20 -20 -10 7 -12 -20 -20 -14 -18 4 21 14 6 -18 1 -6 10 -7 9 -7 -9 -20 -20 -20 -20 4 28 29 -20 -20 19 3
-20 -17 -12 -10 -2 -13 -2 -20 -20 8 4 -10 -13 -17 9 5 -13 -9 -14 -17 -20 -20 -20 -20 -3 9 -18 -20 -20 -20 22 23
-20 -20 -20 -20 -19 4 0 -19 -20 -19 3 -20 -20 -20 -20 -20 -20 -20 -20 17 -16 4 19 16 6 -20 -20 -18 -11 -17 -10 -15

GFSFLT2_prec_radar_084.txt.gz
Reflectivity
-2 6 -20 -15 -20 -10 -20 -16 19 38 36 37 38 33 -11 -20 21 29 -1 10 -20 -20 -20 0 6 -20 -20 -20 -20 -20 -20 -20
10 7 -20 -20 -20 -20 -20 -4 13 12 36 44 34 29 37 30 26 29 -19 -9 -20 -9 6 -20 -20 -20 -20 -20 -20 -20 -20 -20
-20 11 -20 -20 -20 -20 -20 -20 -10 20 34 40 31 -18 32 35 0 -20 14 17 -19 -20 -20 5 -15 -20 -20 -20 -20 -20 -20 -20
6 -1 3 -20 -20 -20 -20 -20 4 19 38 35 33 25 24 36 24 -20 -19 -20 -20 -20 -17 4 -20 -20 -20 -20 -20 -20 -20 -20
-10 -20 -12 6 -20 -20 7 8 -19 -12 12 29 30 24 20 34 36 28 -20 -3 -19 -20 -19 -19 -20 -20 -20 -20 -20 -20 -20 -20
1 -20 -9 17 11 -20 8 20 27 11 -13 -20 -2 -19 25 29 30 33 -1 -20 -8 -18 -11 3 -20 -20 -20 -20 -20 -20 -20 -20
-20 -9 -20 -20 -20 -20 -20 -19 10 19 17 -5 -20 -20 -4 6 20 34 22 5 -11 -20 -3 -14 -20 -20 -20 -20 -20 -20 -20 -20
-20 -2 -20 -20 -20 -20 -20 -16 20 14 34 -10 -15 -20 -20 18 32 33 23 -5 -0 -20 -20 -20 -20 -20 -20 -20 -20 -20 -20 -20
-20 -20 -7 -15 10 -18 -12 -8 -20 15 15 18 -20 -9 -10 21 21 22 12 11 2 -20 -20 -20 -20 -20 -20 -20 -20 -20 -20 -20
-20 -20 -19 10 -12 -15 -20 -20 -16 -20 -1 27 -15 -17 -20 -20 25 31 26 12 4 -8 4 -13 -20 -20 -20 -20 -20 -10 -20 -20
-20 -20 -8 -14 -13 -7 -7 -10 -17 -9 -6 7 5 -2 1 4 -2 27 33 -18 -2 27 6 -11 -20 -20 -12 -20 -20 -20 -20 -18
-20 -20 -6 14 10 -15 -12 5 -7 9 18 23 22 8 28 32 34 29 24 23 8 7 12 6 -20 -14 7 -13 -15 -20 -20 -20
-20 -20 -6 7 9 14 -7 -8 5 7 14 27 30 30 29 32 37 31 19 12 -16 -17 11 9 8 12 12 29 16 -5 -10 -20
-20 -15 -1 -7 -19 -20 -18 -20 -7 -11 23 16 14 25 26 29 27 21 26 28 25 3 5 7 8 -1 -2 -9 -20 -20 -20 -20
-20 -20 1 -10 -15 -20 -12 -18 14 -11 -20 -11 9 17 4 -12 -6 3 7 4 -9 -20 -20 -20 -20 -17 -20 -20 -15 -12 -20 -20
-20 -20 -12 -20 -4 -20 15 -3 -20 -20 -20 -11 11 -4 5 7 5 4 3 -12 -17 -20 -20 -20 -20 -20 -20 1 -2 6 21 -8
-20 -14 -9 2 8 -20 -20 -20 -20 -20 -15 -16 -6 -20 -20 -19 -16 -20 -20 -20 -20 -20 -20 -20 19 -5 -4 -5 1 27 29 19
-20 -20 -5 1 -9 -5 -20 -20 -13 -20 -20 -12 -19 -17 -15 -20 11 -20 -20 -20 -14 -20 -14 -14 14 -19 25 4 -7 -5 -8 -16
-20 -20 -20 0 5 -15 -20 -20 -4 -20 -20 -20 -20 -20 -20 -20 -20 -20 -20 -2 -19 -15 26 13 -6 -1 -15 14 29 10 -20 7
-20 -20 -20 8 11 -20 7 -20 -20 -20 -20 -20 -20 -20 -20 -20 -20 -20 -20 -20 -20 -20 25 27 20 22 -20 5 25 8 -15 16

GFSFLT2_prec_radar_087.txt.gz
Reflectivity
-9 -20 -20 -20 -20 -20 -20 -20 -20 1 3 20 36 47 37 1 -16 -12 -1 -20 -20 -20 -20 -20 -6 -12 -20 -20 -20 -20 -20 -20
7 7 -5 -20 -20 -20 -20 -20 -20 4 -0 21 35 30 35 36 -15 30 -2 -8 -20 -19 -2 -20 -6 -9 12 -20 -17 -20 -20 -20
-20 10 -0 -20 -20 -20 -20 -20 -20 -20 -2 8 32 39 36 32 -1 13 3 21 15 4 7 -20 -19 7 -20 -20 -20 -20 -20 -20
-20 9 3 -20 -20 -20 -20 -20 -20 -20 -4 8 15 29 35 36 32 -19 -20 -17 -6 -20 -20 -20 -17 -9 -20 -20 -2 -20 -20 -20
-20 -11 -12 4 -12 -20 -20 -20 -20 -20 -3 31 46 36 28 -12 22 27 -18 -20 -20 -20 -20 -20 -20 -20 -11 -1 1 -20 -20 -20
-20 -20 -20 -18 -20 -19 -20 -20 -20 -20 -6 11 38 35 25 -20 19 28 -20 -20 -20 -20 -20 -20 -20 -20 -14 -19 -20 -20 -20 -20
-20 -20 -20 -9 -20 -20 -20 -20 -20 -20 -20 -5 16 8 9 -9 -10 13 17 -17 -20 -20 -20 -20 -20 -20 3 -20 -20 -20 -20 -20
-20 -20 -20 -20 -20 -20 -20 -20 -20 -20 -20 1 -13 -5 -20 -17 -6 -20 -20 -2 -20 -20 -20 -20 -20 -15 -6 -20 -20 -20 -20 -20
-20 -20 -20 -20 -20 -20 -20 -20 -20 -20 11 -18 -17 -20 19 -13 -4 -20 -20 18 -20 -20 -20 -20 -20 -3 -13 -20 -20 -20 -20 -20
-20 -20 -20 -4 6 -20 -20 -20 -20 -20 12 21 -8 -20 -19 -20 -11 18 7 19 -20 -20 -20 -19 -13 -2 -20 -12 -5 -20 -20 -20
-20 -20 -20 -20 5 -14 -20 -20 -20 -20 -20 14 15 5 18 21 25 12 18 23 -8 -12 -20 -20 -20 -20 -17 -20 -20 -20 -20 -20
-20 -20 -20 -16 -20 -10 -6 -20 -20 -20 -20 -20 17 12 10 14 9 4 21 18 -0 -8 -20 -20 -15 -16 -14 -20 -20 -20 13 -2
-20 -20 -20 -20 3 8 -16 -8 -19 -20 -14 -20 16 13 5 22 32 29 7 22 -6 -19 6 13 -9 8 11 14 7 -17 4 16
-20 -20 -20 -19 -20 -3 -20 -20 -13 17 0 15 14 21 23 24 17 26 29 19 -15 -6 11 -14 14 10 6 12 11 -10 8 -11
-20 -20 -20 -20 -6 12 -11 -20 -20 4 5 11 13 27 31 35 34 29 31 11 1 -20 -20 -20 -20 -20 -12 -9 -20 -20 -6 -4
-20 -20 -20 -20 13 13 -6 -20 -20 -20 -8 -20 -9 -7 2 12 21 29 22 25 25 -13 -17 -14 -20 -10 -20 -20 -9 -5 -18 -11
-20 -20 -20 -20 -19 14 -19 -20 -17 -19 6 -20 -11 15 3 20 21 16 18 24 25 19 -20 -19 -20 -20 -20 -20 -20 -20 -20 -20
-20 -20 -20 -15 -20 1 -17 -20 -20 -20 -20 -20 -9 -10 -3 -20 -4 -14 -12 7 11 -3 -19 -15 -19 -17 -15 -16 -19 -20 -20 14
-20 -20 -20 -1 -20 -20 -19 -20 -20 -20 -20 -20 -17 -20 -20 -20 -20 -20 -20 -20 -20 -20 -20 -20 -14 7 14 4 -9 -18 -20 -20
-20 -20 -20 -17 -3 -15 -20 -20 -20 -20 -20 -20 -20 -20 -20 -20 -20 -20 -20 -20 -20 -20 -20 -20 -20 9 26 28 4 13 -2 10